Tracking 30990 objects as of 8-Jul-2025
HD Live streaming from Space Station
objects crossing your sky now

STARLINK-5860

Track STARLINK-5860 now!
10-day predictions
STARLINK-5860 is classified as:


NORAD ID: 57052
Int'l Code: 2023-088E
Perigee: 565.3 km
Apogee: 567.2 km
Inclination: 43.0 °
Period: 95.8 minutes
Semi major axis: 6937 km
RCS: Unknown
Launch date: June 22, 2023
Source: United States (US)
Launch site: AIR FORCE WESTERN TEST RANGE (AFWTR)
Your satellite tracking list
Your tracking list is empty




NASA's NSSDC Master Catalog

Two Line Element Set (TLE):
1 57052U 23088E   25188.89878571 -.00000062  00000-0  10505-4 0  9991
2 57052  43.0053 357.8787 0001367 270.5123  89.5563 15.02534530113546
Source of the keplerian elements: AFSPC